EW0867 Weather Reports


time (UTC)temp
C
wind
direction
speed
KPH
gust
KPH
rain 1hr
cm
rain 24hr
cm
rain mn
cm
humidity
%
barometer
mb
20260505061933 12 2 0.0 0.0 1.70 1.70 0.33 87 1013.0
20260505061457 13 24 0.0 0.0 1.50 1.50 0.30 86 1013.0
20260505060957 13 321 0.0 0.0 1.40 1.40 0.28 86 1013.1
20260505060444 13 9 0.0 8.0 1.30 1.30 0.25 86 1013.0
20260505055945 13 332 0.0 8.0 1.19 1.19 0.23 85 1012.9
20260505055446 13 240 0.0 9.7 0.99 0.99 0.20 84 1012.9
20260505054947 13 16 1.6 9.7 0.89 0.89 0.18 84 1012.9
20260505054451 13 9 0.0 0.0 0.71 0.71 0.15 83 1012.9
20260505053952 13 323 0.0 0.0 0.51 0.51 0.10 83 1012.9
20260505053513 14 219 0.0 0.0 0.30 0.30 0.05 82 1012.9
20260505052953 14 204 0.0 0.0 0.20 0.20 0.05 81 1012.8
20260505052433 14 233 0.0 0.0 0.10 0.10 0.03 80 1012.8
20260505051941 14 24 0.0 0.0 0.00 0.00 0.00 79 1012.7
20260505051441 14 24 0.0 0.0 0.00 0.00 0.00 78 1012.6
20260505051002 15 251 0.0 0.0 0.00 0.00 0.00 78 1012.7
20260505050441 15 248 0.0 0.0 0.00 0.00 0.00 77 1012.6
20260505041436 15 207 0.0 0.0 0.00 0.00 0.00 72 1012.2
20260505040936 15 207 0.0 0.0 0.00 0.00 0.00 71 1012.1
20260505040442 15 205 0.0 0.0 0.00 0.00 0.00 70 1012.1
20260505035946 15 7 0.0 0.0 0.00 0.00 0.00 69 1012.1
20260505035507 15 321 0.0 0.0 0.00 0.00 0.00 69 1012.2
20260505034951 15 16 0.0 0.0 0.00 0.00 0.00 69 1012.2
20260505034436 15 16 0.0 0.0 0.00 0.00 0.00 69 1012.2
20260505033936 15 16 0.0 0.0 0.00 0.00 0.00 69 1012.1
20260505033441 15 16 0.0 0.0 0.00 0.00 0.00 69 1012.1
20260505032942 15 16 0.0 0.0 0.00 0.00 0.00 69 1012.2
20260505032447 15 16 0.0 0.0 0.00 0.00 0.00 68 1012.2
20260505032007 15 16 0.0 0.0 0.00 0.00 0.00 68 1012.3
20260505031450 15 16 0.0 0.0 0.00 0.00 0.00 67 1012.3
20260505030931 15 16 0.0 0.0 0.00 0.00 0.00 67 1012.4
20260505030435 15 16 0.0 0.0 0.00 0.00 0.00 66 1012.5
20260505025955 15 16 0.0 0.0 0.00 0.00 0.00 66 1012.6
20260505025435 15 16 0.0 0.0 0.00 0.00 0.00 66 1012.6
20260505024936 16 16 0.0 0.0 0.00 0.00 0.00 66 1012.6
20260505024441 16 16 0.0 0.0 0.00 0.00 0.00 66 1012.7
20260505023945 16 16 0.0 0.0 0.00 0.00 0.00 65 1012.8
20260505023431 16 17 0.0 0.0 0.00 0.00 0.00 65 1012.8
20260505022935 16 9 0.0 0.0 0.00 0.00 0.00 66 1012.9
20260505022436 15 9 0.0 0.0 0.00 0.00 0.00 66 1013.0
20260505021956 15 9 0.0 0.0 0.00 0.00 0.00 67 1013.0
20260505021436 15 9 0.0 0.0 0.00 0.00 0.00 67 1012.9
20260505020940 15 9 0.0 0.0 0.00 0.00 0.00 67 1013.0
20260505020445 15 9 0.0 0.0 0.00 0.00 0.00 68 1013.1
20260505020006 15 9 0.0 0.0 0.00 0.00 0.00 68 1013.1
20260505015447 15 9 0.0 0.0 0.00 0.00 0.00 68 1013.0
20260505014950 15 9 0.0 0.0 0.00 0.00 0.00 68 1013.1
20260505014512 15 9 0.0 0.0 0.00 0.00 0.00 68 1013.1
20260505014012 15 9 0.0 0.0 0.00 0.00 0.00 69 1013.2
20260505013452 15 9 0.0 0.0 0.00 0.00 0.00 69 1013.3
20260505012934 15 9 0.0 0.0 0.00 0.00 0.00 70 1013.3
20260505012455 15 11 0.0 0.0 0.00 0.00 0.00 70 1013.4
20260505011935 15 9 0.0 0.0 0.00 0.00 0.00 70 1013.4
20260505011456 15 9 0.0 6.4 0.00 0.00 0.00 70 1013.7
20260505010940 15 338 1.6 6.4 0.00 0.00 0.00 70 1013.8
20260505010441 15 344 0.0 4.8 0.00 0.00 0.00 70 1013.9
20260505010001 15 355 0.0 0.0 0.00 0.00 0.00 70 1014.0
20260505005444 15 18 0.0 4.8 0.00 0.00 0.00 69 1014.1
20260505005007 15 15 0.0 6.4 0.00 0.00 0.00 69 1014.1
20260505004446 15 11 0.0 8.0 0.00 0.00 0.00 69 1014.2
20260505003951 16 352 0.0 9.7 0.00 0.00 0.00 68 1014.2
20260505003451 16 17 0.0 9.7 0.00 0.00 0.00 69 1014.3
20260505002953 16 19 1.6 9.7 0.00 0.00 0.00 69 1014.4
20260505002433 15 24 0.0 0.0 0.00 0.00 0.00 69 1014.5
20260505001936 16 19 0.0 0.0 0.00 0.00 0.00 69 1014.5
20260505001436 16 18 0.0 11.3 0.00 0.00 0.00 69 1014.5
20260505000938 16 14 0.0 11.3 0.00 0.00 0.00 68 1014.5
20260505000438 16 358 0.0 6.4 0.00 0.00 0.00 68 1014.6
20260504235943 16 24 0.0 0.0 0.00 0.00 0.00 68 1014.8
20260504235443 16 311 0.0 0.0 0.00 0.00 0.00 68 1014.8
20260504234945 16 307 0.0 0.0 0.00 0.00 0.00 68 1014.9
20260504234449 16 307 0.0 6.4 0.00 0.00 0.00 67 1014.9
20260504233931 16 325 0.0 8.0 0.00 0.00 0.00 67 1015.0
20260504233434 16 335 1.6 9.7 0.00 0.00 0.00 66 1015.1
20260504232935 16 24 0.0 9.7 0.00 0.00 0.00 66 1015.1
20260504232436 16 12 1.6 9.7 0.00 0.00 0.00 66 1015.1
20260504231941 16 20 1.6 9.7 0.00 0.00 0.00 66 1015.2
20260504231445 16 14 0.0 8.0 0.00 0.00 0.00 66 1015.3
20260504231007 16 19 0.0 9.7 0.00 0.00 0.00 66 1015.3
20260504230446 16 44 1.6 12.9 0.00 0.00 0.00 66 1015.3
20260504225948 16 11 1.6 12.9 0.00 0.00 0.00 65 1015.3
20260504225452 16 2 1.6 9.7 0.00 0.00 0.00 65 1015.4
20260504224933 16 1 0.0 8.0 0.00 0.00 0.00 65 1015.4
20260504224434 16 11 0.0 9.7 0.00 0.00 0.00 65 1015.4
20260504223935 16 19 1.6 9.7 0.00 0.00 0.00 64 1015.4
20260504222933 16 29 1.6 6.4 0.00 0.00 0.00 63 1015.6
20260504222438 17 18 0.0 8.0 0.00 0.00 0.00 62 1015.6
20260504221943 17 17 1.6 8.0 0.00 0.00 0.00 62 1015.6
20260504221505 17 5 0.0 6.4 0.00 0.00 0.00 61 1015.6
20260504220948 17 9 1.6 8.0 0.00 0.00 0.00 60 1015.7
20260504220510 17 256 0.0 9.7 0.00 0.00 0.00 59 1015.8
20260504220001 17 13 0.0 9.7 0.00 0.00 0.00 59 1015.9
20260504215504 17 215 0.0 8.0 0.00 0.00 0.00 57 1015.9
20260504214945 17 246 1.6 8.0 0.00 0.00 0.00 56 1015.8
20260504214453 17 360 0.0 1.6 0.00 0.00 0.00 55 1015.8
20260504213955 17 227 0.0 0.0 0.00 0.00 0.00 54 1015.9
20260504213436 17 209 0.0 6.4 0.00 0.00 0.00 53 1016.0
20260504212942 17 323 1.6 6.4 0.00 0.00 0.00 52 1016.1
20260504212442 17 270 0.0 4.8 0.00 0.00 0.00 52 1016.1
20260504212004 17 228 0.0 6.4 0.00 0.00 0.00 51 1016.1
20260504211504 17 24 0.0 6.4 0.00 0.00 0.00 50 1016.1
20260504210945 17 236 1.6 6.4 0.00 0.00 0.00 49 1016.1
20260504210446 17 225 0.0 4.8 0.00 0.00 0.00 48 1016.2
20260504205951 17 225 0.0 9.7 0.00 0.00 0.00 47 1016.2
20260504205453 17 227 1.6 12.9 0.00 0.00 0.00 46 1016.2
20260504205018 17 236 0.0 11.3 0.00 0.00 0.00 45 1016.2
20260504204517 18 240 0.0 11.3 0.00 0.00 0.00 45 1016.2
20260504203958 18 232 0.0 11.3 0.00 0.00 0.00 44 1016.2
20260504203500 18 225 1.6 11.3 0.00 0.00 0.00 44 1016.2
20260504202946 18 311 1.6 11.3 0.00 0.00 0.00 43 1016.2
20260504202449 18 24 0.0 11.3 0.00 0.00 0.00 43 1016.2
20260504201950 18 15 0.0 11.3 0.00 0.00 0.00 43 1016.2
20260504201451 18 29 0.0 4.8 0.00 0.00 0.00 42 1016.1
20260504200953 18 8 0.0 6.4 0.00 0.00 0.00 42 1016.2
20260504200454 18 245 0.0 8.0 0.00 0.00 0.00 43 1016.1
20260504195959 18 24 1.6 8.0 0.00 0.00 0.00 42 1016.2
20260504195500 18 16 0.0 1.6 0.00 0.00 0.00 43 1016.2
20260504194944 18 150 0.0 1.6 0.00 0.00 0.00 43 1016.1
20260504194508 18 307 0.0 6.4 0.00 0.00 0.00 44 1016.1
20260504193948 18 150 0.0 6.4 0.00 0.00 0.00 44 1016.0
20260504193450 18 3 0.0 9.7 0.00 0.00 0.00 44 1016.0
20260504193031 18 242 0.0 11.3 0.00 0.00 0.00 44 1015.9
20260504190042 20 350 0.0 9.7 0.00 0.00 0.00 43 1015.8
20260504185020 20 229 0.0 8.0 0.00 0.00 0.00 43 1015.6
20260504184501 20 18 0.0 8.0 0.00 0.00 0.00 45 1015.5
20260504182502 20 229 0.0 6.4 0.00 0.00 0.00 45 1015.4
20260504182003 20 350 0.0 14.5 0.00 0.00 0.00 45 1015.3
20260504181507 21 24 1.6 14.5 0.00 0.00 0.00 45 1015.3
20260504181029 21 222 0.0 0.0 0.00 0.00 0.00 45 1015.3
20260504180509 21 13 0.0 0.0 0.00 0.00 0.00 45 1015.3
20260504180030 21 7 0.0 0.0 0.00 0.00 0.00 45 1015.3
20260504175513 21 9 0.0 0.0 0.00 0.00 0.00 44 1015.3
20260504175035 21 7 0.0 0.0 0.00 0.00 0.00 44 1015.2
20260504174517 21 7 0.0 0.0 0.00 0.00 0.00 44 1015.3
20260504173959 21 13 0.0 0.0 0.00 0.00 0.00 44 1015.3
20260504173522 21 357 0.0 0.0 0.00 0.00 0.00 45 1015.2
20260504173006 21 13 0.0 0.0 0.00 0.00 0.00 45 1015.2
20260504172509 21 18 0.0 0.0 0.00 0.00 0.00 45 1015.2
20260504172031 21 19 0.0 0.0 0.00 0.00 0.00 45 1015.2
20260504171516 21 20 0.0 3.2 0.00 0.00 0.00 45 1015.3
20260504170522 21 9 0.0 0.0 0.00 0.00 0.00 45 1015.3
20260504151021 21 9 0.0 12.9 0.00 0.00 0.00 43 1015.8
20260504150505 21 24 0.0 12.9 0.00 0.00 0.00 43 1015.9
20260504141006 22 24 0.0 0.0 0.00 0.00 0.00 41 1016.1
20260504140510 22 29 0.0 1.6 0.00 0.00 0.00 41 1016.2
20260504130521 21 238 0.0 0.0 0.00 0.00 0.00 44 1016.9
20260504110513 20 187 0.0 1.6 0.00 0.00 0.00 44 1018.0
20260504100519 20 241 0.0 6.4 0.00 0.00 0.00 43 1018.0
20260504081533 18 24 0.0 8.0 0.00 0.00 0.00 47 1018.0
20260504081013 17 17 0.0 8.0 0.00 0.00 0.00 47 1018.0
20260504080516 17 17 0.0 8.0 0.00 0.00 0.00 47 1017.9